User: anonymous   Login
Location: Franzen
(48.6167°N, 15.3833°E)
Time: 05:19:24
(UTC+00:00)
Language:

Cosmos 2263 Rocket - Orbit

View from above orbital plane
View from above orbital plane
View from above satellite
View from above satellite

Ground track
Ground track

The orbit data is extracted from the following two-line orbital elements,

1 22803U 93059B   21171.37565167 -.00000074  00000-0 -12880-4 0  9999
2 22803  70.9913  43.8958 0018922 310.8819  49.0664 14.16838864435678
Epoch (UTC): 20 June 2021 09:00:56
Eccentricity: 0.0018922
inclination: 70.9913°
perigee height: 822 km
apogee height: 850 km
right ascension of ascending node: 43.8958°
argument of perigee: 310.8819°
revolutions per day: 14.16838864
mean anomaly at epoch: 49.0664°
orbit number at epoch: 43567

The dashed part of the orbit path shows where the satellite is in the earth's shadow,  

DLR